Regional Weather Roundup
Issued by NWS

Home | Current Version | Previous Version | Graphics & Text | Print | Product List | Glossary On
Versions: 1 2 3 4 5 6 7 8 9 10 11 12 13 14 15 16 17 18 19 20 21 22 23 24 25 26 27 28 29 30 31 32 33 34 35 36 37 38 39 40 41 42 43 44 45 46 47 48 49 50
000
ASUS44 KMEG 200110
RWRTN
TENNESSEE HOURLY STATE WEATHER ROUNDUP
NATIONAL WEATHER SERVICE MEMPHIS TN
800 PM CDT SAT APR 19 2014

TNZ002-004-019-021-049-052-054-088>092-200200-
WEST TENNESSEE

CITY           SKY/WX    TMP DP  RH WIND       PRES   REMARKS
MEMPHIS INTL   PTCLDY    72  41  32 NE8       30.13S
NWS MEMPHIS      N/A     71 N/A N/A MISG        N/A
JACKSON        PTCLDY    65  42  43 N3        30.14R
DYERSBURG      MOCLDY    68  43  40 CALM      30.16S
UNION CITY     CLEAR     66  45  45 N3        30.15R
PARIS          CLEAR     62  38  41 CALM      30.16R
LEXINGTON      CLEAR     70  37  30 NE3       30.14R
SAVANNAH       PTCLDY    64  45  50 CALM      30.14R
$$

TNZ008-025-027-028-033-062-065-066-200200-
NORTH MIDDLE TENNESSEE

CITY           SKY/WX    TMP DP  RH WIND       PRES   REMARKS
NASHVILLE      PTCLDY    67  40  37 N7        30.15R
DICKSON        CLEAR     68  36  30 NE3       30.16R
PORTLAND         N/A     66  37  34 NE5       30.16R
CLARKSVILLE    CLEAR     67  38  34 CALM      30.15R
SMYRNA         CLEAR     62  43  49 N6        30.15R
MURFREESBORO   CLEAR     69  39  33 N5        30.14R
COOKEVILLE     CLEAR     55  45  67 CALM      30.15R
LIVINGSTON     PTCLDY    65  36  34 N8        30.17R
GALLATIN       CLEAR     67  42  40 N5        30.16S
CROSSVILLE     PTCLDY    59  40  49 S3        30.18R
$$

TNZ061-075-076-078-094-096-097-200200-
SOUTH MIDDLE TENNESSEE

CITY           SKY/WX    TMP DP  RH WIND       PRES   REMARKS
LEWISBURG      CLEAR     61  46  57 CALM      30.14R
FAYETTEVILLE   CLEAR     65  39  38 N7G15     30.14R
TULLAHOMA      CLEAR     64  37  36 CALM      30.16R
WINCHESTER     CLEAR     64  43  45 SE8       30.16R
MCMINNVILLE    CLEAR     64  39  39 N3        30.15R
COLUMBIA       CLEAR     61  48  63 CALM      30.13S
SHELBYVILLE    CLEAR     68  39  34 N3        30.15R
$$

TNZ017-018-042-046-047-200200-
NORTHEAST TENNESSEE

CITY           SKY/WX    TMP DP  RH WIND       PRES   REMARKS
TRI CITIES     CLOUDY    58  39  49 W5        30.19R
ELIZABETHTON   MOCLDY    55  43  62 CALM      30.19R
$$

TNZ012-013-036-069-073-074-200200-
CENTRAL EAST TENNESSEE

CITY           SKY/WX    TMP DP  RH WIND       PRES   REMARKS
KNOXVILLE      CLOUDY    57  50  77 N5        30.15R
OAK RIDGE      CLOUDY    59  44  57 CALM      30.17R
$$

TNZ083-085-099-200200-
SOUTHEAST TENNESSEE

CITY           SKY/WX    TMP DP  RH WIND       PRES   REMARKS
CHATTANOOGA    CLOUDY    64  43  46 CALM      30.16R
$$

SKY/WX REPORTED AS FAIR MEANS FEW OR NO CLOUDS BELOW
12 THOUSAND FEET.




USA.gov is the U.S. government's official web portal to all federal, state and local government web resources and services.